BEIDOU-3S IGSO-1S

Last updated on Tue Jul 01 2025 00:02:46 GMT+0000 (Coordinated Universal Time)

1 40549U 15019A 25180.89865968 -.00000194 00000+0 00000+0 0 9996 2 40549 49.8630 299.7009 0040265 192.4517 204.6671 1.00275426 37548
UTC large
Height (km)
Speed (km/s)
/
Latitude / Longitude
Inclination (degrees)
Orbital Period (minutes)
Azimuth
Elevation
Range (km)
Doppler Factor

Next 0 passes for location: London (51.5072 / 0.1276)

Sorry there are no passes over London.